Location: Krasnoyarskiy Pitomnik
(51.1333°N, 71.6167°E)
Time: 21:47:44
(UTC+00:00)

A-11 Canister half - Pass Details

Date: 26 April 2024
Orbit: 1525 x 1683 km, 47.3° (Epoch: 19 May)

Event Time Altitude Azimuth Distance (km) Brightness Sun altitude
Rises 06:44:04 0° 288° (WNW) 4,940 11.5 52.2°
Reaches altitude 10° 06:48:03 10° 276° (W) 3,950 11.2 52.3°
Maximum altitude 06:55:25 24° 228° (SW) 2,990 11.2 52.4°
Drops below altitude 10° 07:02:44 10° 181° (S) 3,900 12.0 52.5°
Sets 07:06:40 0° 168° (SSE) 4,863 12.2 52.6°
